Regional Weather Roundup
Issued by NWS

Home | Current Version | Previous Version | Graphics & Text | Print | Product List | Glossary On
Versions: 1 2 3 4 5 6 7 8 9 10 11 12 13 14 15 16 17 18 19 20 21 22 23 24 25 26 27 28 29 30 31 32 33 34 35 36 37 38 39 40 41 42 43 44 45 46 47 48 49 50
000
ASUS43 KLMK 230202
RWRKY
KENTUCKY REGIONAL WEATHER ROUNDUP
NATIONAL WEATHER SERVICE LOUISVILLE KY
900 PM EST SUN JAN 22 2017

NOTE "FAIR" INDICATES FEW OR NO CLOUDS BELOW 12,000 FEET
WITH NO SIGNIFICANT WEATHER AND/OR OBSTRUCTIONS TO VISIBILITY.

KYZ001>023-026-027-061>063-070>075-230300-
WESTERN AND SOUTH CENTRAL KENTUCKY

CITY           SKY/WX    TMP DP  RH WIND       PRES   REMARKS
PADUCAH        CLOUDY    56  50  80 N15G21    29.44R
HENDERSON      CLOUDY    57  46  67 N10       29.43S
OWENSBORO      PTCLDY    58  50  75 N12       29.40F
HOPKINSVILLE   CLOUDY    57  52  83 N13       29.35R
BOWLING GREEN  MOCLDY    57  51  80 N8        29.32F
GLASGOW        NOT AVBL
$$

KYZ024-025-028>034-038-045-046-053-230300-
NORTH CENTRAL KENTUCKY

CITY           SKY/WX    TMP DP  RH WIND       PRES   REMARKS
LOUISVILLE/SDF CLOUDY    60  49  66 N13       29.37F
LOUISVILLE/LOU CLOUDY    60  49  66 N10       29.38F
FORT KNOX      CLOUDY    57  51  78 N10G18    29.35F
$$

KYZ035>037-039>044-047>052-055>060-089>105-230300-
NORTHEAST KENTUCKY

CITY           SKY/WX    TMP DP  RH WIND       PRES   REMARKS
LEXINGTON      CLOUDY    56  50  80 NE12      29.36F
COVINGTON      CLOUDY    56  49  77 NE17      29.43F
FRANKFORT      MOCLDY    56  50  80 NE10      29.36F
$$

KYZ054-064>069-076>088-106>120-230300-
SOUTHEAST KENTUCKY

CITY           SKY/WX    TMP DP  RH WIND       PRES   REMARKS
JACKSON        CLOUDY    54  51  90 NE9       29.34F
LONDON         CLOUDY    55  51  86 NE12      29.28F
SOMERSET       NOT AVBL
MIDDLESBORO    RAIN      54  54 100 S3        29.27F
MONTICELLO     CLOUDY    54  52  93 N15G24    29.29F
$$




USA.gov is the U.S. government's official web portal to all federal, state and local government web resources and services.